Location: Newark
(55.7678°N, 23.6664°E)
Time: 20:39:43
(UTC+00:00)

N. Korean satellite - Pass Details

Date: 30 September 2020
Orbit: 452 x 505 km, 97.2° (Epoch: 28 October)

Event Time Altitude Azimuth Distance (km) Brightness Sun altitude
Rises 03:04:36 0° 25° (NNE) 2,595 10.8 -12.3°
Reaches altitude 10° 03:07:15 10° 45° (NE) 1,696 10.3 -11.9°
Maximum altitude 03:09:47 18° 89° (E) 1,271 9.9 -11.6°
Drops below altitude 10° 03:12:17 10° 134° (SE) 1,664 9.8 -11.2°
Sets 03:14:50 0° 154° (SSE) 2,525 10.4 -10.9°
